TimeMDT,TemperatureF,Dew PointF,Humidity,Sea Level PressureIn,VisibilityMPH,Wind Direction,Wind SpeedMPH,Gust SpeedMPH,PrecipitationIn,Events,Conditions,WindDirDegrees,DateUTC
12:53 AM,52.0,48.0,86,29.81,10.0,South,13.8,-,N/A,,Clear,190,2012-10-13 06:53:00
1:40 AM,53.6,51.8,94,29.87,6.0,SW,17.3,21.9,N/A,,Mostly Cloudy,230,2012-10-13 07:40:00
1:53 AM,53.1,51.1,93,29.77,3.0,SW,15.0,23.0,N/A,,Overcast,230,2012-10-13 07:53:00
2:50 AM,51.8,50.0,94,29.86,2.5,SW,16.1,-,N/A,,Overcast,220,2012-10-13 08:50:00
2:53 AM,52.0,50.0,93,29.77,2.5,SW,13.8,21.9,N/A,,Overcast,230,2012-10-13 08:53:00
3:29 AM,51.8,50.0,94,29.84,4.0,SW,13.8,-,N/A,,Overcast,220,2012-10-13 09:29:00
3:53 AM,50.0,48.9,96,29.75,5.0,SW,13.8,-,N/A,,Overcast,230,2012-10-13 09:53:00
4:26 AM,48.2,48.2,100,29.83,9.0,SW,11.5,-,N/A,,Scattered Clouds,220,2012-10-13 10:26:00
4:53 AM,48.0,46.9,96,29.77,7.0,WSW,15.0,-,N/A,,Partly Cloudy,240,2012-10-13 10:53:00
5:00 AM,48.2,46.4,93,29.85,2.5,WSW,11.5,-,N/A,,Mostly Cloudy,240,2012-10-13 11:00:00
5:07 AM,48.2,46.4,93,29.85,3.0,SW,13.8,-,N/A,,Scattered Clouds,230,2012-10-13 11:07:00
5:53 AM,48.0,43.0,83,29.78,10.0,WSW,15.0,-,N/A,,Clear,240,2012-10-13 11:53:00
6:53 AM,44.1,41.0,89,29.80,10.0,West,12.7,-,N/A,,Clear,260,2012-10-13 12:53:00
7:53 AM,44.1,39.0,82,29.81,10.0,West,11.5,-,N/A,,Clear,260,2012-10-13 13:53:00
8:53 AM,52.0,39.9,63,29.79,10.0,West,10.4,-,N/A,,Clear,280,2012-10-13 14:53:00
9:53 AM,60.1,39.9,47,29.75,10.0,NNW,16.1,-,N/A,,Clear,340,2012-10-13 15:53:00
10:53 AM,64.0,39.0,40,29.73,10.0,NNW,16.1,25.3,N/A,,Clear,340,2012-10-13 16:53:00
11:53 AM,66.0,37.9,36,29.70,10.0,NNW,16.1,25.3,N/A,,Clear,340,2012-10-13 17:53:00
12:53 PM,66.0,37.9,36,29.68,10.0,NNW,16.1,29.9,N/A,,Mostly Cloudy,340,2012-10-13 18:53:00
1:53 PM,68.0,39.0,35,29.65,10.0,NNW,19.6,26.5,N/A,,Scattered Clouds,330,2012-10-13 19:53:00
2:35 PM,57.2,41.0,55,29.78,10.0,NNW,24.2,38.0,N/A,,Clear,330,2012-10-13 20:35:00
2:42 PM,57.2,39.2,51,29.78,10.0,NNW,26.5,35.7,N/A,Thunderstorm,Clear,330,2012-10-13 20:42:00
2:53 PM,55.9,42.1,60,29.71,9.0,NW,26.5,36.8,0.00,Rain,Light Rain,320,2012-10-13 20:53:00
3:53 PM,57.9,46.0,65,29.73,10.0,NW,19.6,-,0.00,,Clear,320,2012-10-13 21:53:00
4:53 PM,55.0,46.9,74,29.75,10.0,NW,17.3,-,0.00,Rain,Light Rain,310,2012-10-13 22:53:00
6:53 PM,54.0,45.0,72,29.79,10.0,WNW,18.4,-,N/A,,Clear,300,2012-10-14 00:53:00
8:53 PM,57.9,41.0,53,29.84,10.0,NNW,24.2,32.2,N/A,,Overcast,340,2012-10-14 02:53:00
9:53 PM,55.9,39.9,55,29.87,10.0,NW,15.0,-,N/A,,Overcast,320,2012-10-14 03:53:00
10:53 PM,54.0,43.0,66,29.90,10.0,NW,13.8,-,N/A,,Mostly Cloudy,320,2012-10-14 04:53:00
11:53 PM,52.0,41.0,66,29.92,10.0,NW,12.7,-,N/A,,Clear,320,2012-10-14 05:53:00